    Orbital elements:
    2008 HS3                                            PHA, Earth MOID = 0.0346 AU
    Epoch 2013 Nov. 4.0 TT = JDT 2456600.5                  MPC
    M 174.56964              (2000.0)            P               Q
    n   0.62766230     Peri.    4.62779     -0.60997378     +0.78537804
    a   1.3509896      Node   227.82855     -0.73152135     -0.60923509
    e   0.2260042      Incl.    8.17749     -0.30464487     -0.10960808
    P   1.57           H   21.7           G   0.15           U   0
    Residuals in seconds of arc
    080430 703  0.0   0.2+    080508 046  0.5+  0.2+    080602 H67  0.5-  0.3-
    080430 703  0.4-  0.7+    080508 046  0.9-  1.0+    080602 H67  0.3-  0.1+
    080430 703  0.4-  0.4+    080508 046  0.1+  0.3+    080602 H67  0.2+  0.1+
    080430 703  0.3-  0.4-    080508 046  0.1+  0.1-    080605 H45  0.7+  0.2-
    080430 703  0.2-  0.3+    080508 046  0.6+  0.6+    080605 H45  0.3+  0.0
    080430 703  0.1+  0.6+    080509 B34  0.2-  0.8-    080605 H45  0.3+  0.0
    080430 703  0.1+  0.6+    080509 B34  1.1-  1.2-    080605 H45  0.4+  0.3+
    080430 703  0.8-  0.3+    080509 B34  0.1+  0.8-    080605 H45  0.2+  0.2-
    080430 734  0.4-  0.3+    080509 113  0.0   0.2+    080605 H45  0.3+  0.1+
    080430 734  0.3+  0.5+    080509 113  0.0   0.2+    080607 H45  0.1+  0.2+
    080430 734  1.1-  1.0+    080509 113  0.1+  0.1+    080607 H45  0.4+  0.1-
    080430 734  1.0-  0.0     080509 113  0.2-  0.2+    080607 H45  0.0   0.1-
    080430 B03  0.0   0.3-    080509 113  0.1-  0.3+    080607 H45  0.1+  0.1-
    080430 B03  0.1-  0.1+    080510 151  0.4+  0.4+    080607 H45  0.0   0.2-
    080430 A81  0.2-  0.0     080510 151  0.3+  0.4+    080607 H45  0.1-  0.1-
    080430 B03  0.1-  0.3-    080510 151  0.4+  0.5+    080608 H45  0.1-  0.0
    080430 B03  0.5+  0.5-    080510 151  0.3+  0.5+    080608 H45  0.0   0.1-
    080430 B03  0.1-  0.1-    080510 151  0.2+  0.4+    080608 H45  0.2-  0.0
    080430 B03  0.3+  0.0     080510 151  0.1+  0.3+    080608 H45  0.0   0.1-
    080430 A81  0.2-  0.1+    080510 151  0.1+  0.3+    080608 H45  0.0   0.2+
    080430 A81  0.0   0.1+    080511 560  0.5+  0.1+    080608 H45  0.0   0.1+
    080430 A81  0.0   0.0     080511 560  0.5+  0.2+    080610 703  0.4-  0.3+
    080501 204  0.3+  0.0     080511 560  0.3+  0.7+    080610 703  0.8-  0.2-
    080501 204  0.3+  0.2-    080513 639  1.2+  0.2+    080610 703  1.1-  0.5+
    080502 A78  0.0   0.9-    080513 639  1.2+  0.2+    080610 703  0.9-  0.6-
    080502 A78  0.3-  0.7-    080513 639  0.5+  0.2+    080612 H45  0.2-  0.2+
    080502 A78  0.0   0.7-    080513 639  0.8+  0.3-    080612 H45  0.1-  0.0
    080502 A78  0.2-  0.3-    080513 639  1.0+  0.2-    080612 H45  0.0   0.1+
    080502 A81  0.6+  0.0     080513 639  1.0+  0.2-    080612 H45  0.1-  0.2+
    080502 A81  0.5-  0.3-    080513 639  0.4+  0.1+    080612 H45  0.0   0.1+
    080503 H45  0.1-  0.3-    080513 A53  0.4+  0.3+    080612 H45  0.3-  0.3+
    080503 H45  0.1-  0.2+    080513 A53  0.2+  0.2-    080613 H45  0.0   0.1+
    080503 H45  0.2-  0.2+    080513 A53  0.0   0.4+    080613 H45  0.7+  0.2+
    080503 H45  0.0   0.0     080516 H51  0.4+  0.1-    080613 H45  0.2-  0.2+
    080503 H45  0.2-  0.1-    080516 H51  0.4+  0.0     080613 H45  0.3+  0.1+
    080503 H45 (1.5-  1.0-)   080516 H51  0.1+  0.1-    080613 H45  0.8+  0.1-
    080503 B03  0.1+  0.3+    080516 H51  0.3+  0.0     080613 H45  0.1+  0.1-
    080503 B03  0.2+  0.3-    080518 649  0.3-  0.0     080615 H55  0.3-  0.3-
    080503 B03  0.2+  0.1+    080518 649  0.2+  0.1-    080615 H55  0.2-  0.0
    080503 B03  0.2+  0.0     080518 649  0.1-  0.3+    080615 H55  0.3-  0.1+
    080503 B03  0.1+  0.1-    080518 649  0.1+  0.1+    080615 H55  0.3-  0.2+
    080503 215  0.0   0.3+    080519 H51  0.0   0.0     080615 H55  0.5-  0.3+
    080503 215  0.1-  0.2+    080519 H51  0.3+  0.3+    080618 H55  0.0   0.1-
    080503 215  0.3-  0.3+    080519 H51  0.0   0.1-    080618 H55  0.1-  0.3-
    080504 291  0.3-  0.1-    080519 H51  0.2-  0.0     080618 H55  0.5-  1.4-
    080504 291  0.4-  0.3-    080519 H51  0.3+  0.1+    080619 H55  0.1-  0.0
    080504 291  0.4-  0.7-    080519 H51  0.3+  0.0     080619 H55  0.0   0.1+
    080504 H51  0.3+  0.3+    080519 H51  0.4+  0.1+    080619 H55  0.2-  0.1-
    080504 H51  0.3+  0.3+    080519 H51  0.4+  0.2+    080621 H55  0.1+  1.1-
    080504 H51  0.2-  0.3+    080519 H51  0.0   0.3+    080621 H55  0.6-  0.5-
    080504 H51  0.5+  0.2+    080519 H51  0.3+  0.2+    080621 H55  0.3-  0.3-
    080504 H51  0.5+  0.2-    080519 H55  0.0   0.1+    080622 H55  0.2+  0.2+
    080504 H51  0.1+  0.0     080519 H55  0.0   0.0     080622 H55  0.0   0.0
    080504 H51  0.1+  0.3+    080519 H55  0.0   0.0     080622 H55  0.1+  0.5-
    080504 H51  0.1+  0.5+    080519 H55  0.1-  0.0     080622 B37  0.2-  0.4+
    080504 H51  0.2-  0.3+    080520 932  0.0   0.1+    080622 B37  1.4+  0.0
    080504 H51  0.1+  0.2+    080520 932  0.3+  0.0     080622 B37  0.3+  0.3-
    080504 H51  0.2-  0.1+    080520 932  0.0   0.2-    080623 H45  0.7+  0.0
    080504 H51  0.3+  0.4+    080521 H51  0.4-  0.0     080623 H45  0.5+  0.1+
    080504 H51  0.1+  0.0     080521 H51  0.3-  0.1-    080623 H45  0.3+  0.3-
    080504 H51  0.0   0.3+    080521 H51  0.1+  0.5-    080623 H45  0.2-  0.1+
    080504 H51  0.2-  0.1-    080521 H51  0.2-  0.2-    080623 H45  0.2+  0.1-
    080504 H51  0.4+  0.2+    080521 H51  0.2-  0.1+    080623 H45  0.4+  0.1-
    080504 H51  0.2+  0.1-    080521 H51  0.4-  0.3-    080626 H45  0.0   0.2+
    080504 H51  0.2+  0.0     080521 H51  0.2-  0.3-    080626 H45  0.2-  0.0
    080504 H51  0.0   0.0     080521 H51  0.2-  0.3-    080626 H45  0.1+  0.0
    080504 H51  0.1+  0.3+    080521 H51  0.1-  0.4-    080626 H45  0.1-  0.1+
    080504 H51  0.4+  0.8+    080521 H51  0.2-  0.2-    080626 H45  0.2-  0.3+
    080505 H51  0.5-  0.2+    080521 H51  0.0   0.2-    080626 H45  0.3-  0.5+
    080505 H55  0.1+  0.0     080521 H55  0.1-  0.0     080628 151  0.2+  0.2+
    080505 H51  0.1-  0.1+    080521 H51  0.0   0.3-    080628 151  0.3+  0.2-
    080505 H51  0.2-  0.2-    080521 H51  0.0   0.2-    080628 151  0.5+  0.8-
    080505 H51  0.0   0.0     080521 H51  0.1-  0.5-    080629 B67  0.4+  0.4-
    080505 H51  0.2-  0.2-    080521 H55  0.1+  0.0     080629 B67  0.2+  0.2-
    080505 H55  0.0   0.1-    080521 H51  0.1+  0.2-    080629 B67  0.1+  0.2-
    080505 H51  0.0   0.1-    080521 H51  0.0   0.2-    080630 H45  0.3+  0.3-
    080505 H51  0.2-  0.4-    080521 H51  0.4-  0.3-    080630 H45  0.2+  0.2-
    080505 H55  0.1+  0.0     080521 H55  0.1-  0.2+    080630 H45  0.3-  0.1+
    080505 H51  0.1-  0.1+    080521 H51  0.2-  0.4-    080630 H45  0.6-  0.1+
    080505 H51  0.1-  0.1+    080522 H55  0.2-  0.2-    080630 H45  0.0   0.1+
    080505 H51  0.4-  0.0     080522 H55  0.2-  0.1-    080630 H45  0.4-  0.3-
    080505 H55  0.0   0.0     080522 H55  0.2-  0.1-    080701 H55  0.2-  0.2+
    080505 H51  0.1+  0.0     080522 H55  0.1-  0.1-    080701 H55  0.0   0.0
    080505 H51  0.0   0.1+    080522 A81  0.0   0.1-    080701 H55  0.1-  0.1+
    080505 H51  0.3-  0.3+    080522 A81  0.1+  0.1-    080701 H55  0.1-  0.1-
    080505 H55  0.1+  0.1-    080522 A81  0.0   0.3-    080701 H55  0.3-  0.1+
    080505 H51  0.1+  0.3-    080522 A81  0.1-  0.1+    080702 H45  0.4-  0.0
    080505 H51  0.1-  0.5-    080522 A81  0.0   0.4-    080702 H45  0.4-  0.4-
    080505 H51  0.4-  0.3-    080525 H51  0.1-  0.0     080702 H45  0.5+  0.1-
    080505 H51  0.3-  0.0     080525 H51  0.2+  0.1+    080702 H45  0.5-  0.3+
    080505 H51  0.1-  0.1+    080525 H51  0.0   0.0     080702 H45  0.2+  0.2-
    080505 H51  0.3-  0.1-    080525 H51  0.0   0.0     080702 H45  0.4+  0.4-
    080505 H51  0.2+  0.4-    080525 H51  0.1+  0.1-    080702 560  0.2+  1.0+
    080505 H51  0.2+  0.4+    080525 H51  0.1-  0.1+    080702 560  0.1-  0.9+
    080505 H51  0.0   0.1+    080525 H51  0.1-  0.1-    080702 560  0.4-  0.5+
    080505 H51  0.1+  0.6-    080525 H51  0.1+  0.0     080704 198  0.1+  0.3-
    080505 H51  0.1-  0.3-    080525 H51  0.2+  0.1-    080704 198  0.1+  0.2-
    080505 H51  0.1-  0.0     080525 H51  0.1+  0.1-    080704 198  0.2+  0.2-
    080505 H51  0.0   0.3+    080525 H51  0.2+  0.1-    080704 198  0.2+  0.1-
    080505 B34  0.2+  0.0     080525 H51  0.3+  0.2-    080704 198  0.4+  0.1+
    080505 B34  1.5-  1.0-    080525 H51  0.0   0.1+    080705 H55  0.3+  0.1+
    080505 B34  0.1-  0.3+    080525 H51  0.0   0.1-    080705 H55  0.1+  0.0
    080505 151  0.2-  0.4-    080525 H51  0.1+  0.1-    080705 H55  0.1+  0.0
    080505 151  0.2+  0.1+    080525 H51  0.4+  0.1-    080705 H55  0.0   0.1+
    080505 151  0.4+  0.3+    080525 H51  0.0   0.2-    080705 H55  0.1+  0.1-
    080505 A17  0.1-  0.1+    080526 B34  0.9-  0.6-    080708 H45  0.4+  0.6-
    080505 A17  0.2-  0.0     080526 B34  0.9-  0.2-    080708 H45  0.3+  0.2+
    080505 A17  0.1+  0.3+    080527 H55  0.1-  0.0     080708 H45  0.4+  0.0
    080506 H55  0.1-  0.1+    080527 H55  0.0   0.1+    080708 H45  0.2+  0.4+
    080506 H55  0.0   0.1-    080527 H55  0.0   0.0     080708 H45  0.3-  0.1-
    080506 H55  0.1-  0.1-    080527 442 (8.4-  1.3+)   080708 H45  0.1-  0.5+
    080506 H55  0.0   0.3+    080527 442 (9.1-  1.2+)   080710 151  0.5-  0.1-
    080506 H55  0.2-  0.1-    080528 704 (1.6+  0.3+)   080710 151  0.4-  0.1+
    080506 H51  0.5+  0.4+    080528 704  0.2+  0.4+    080710 151  0.2-  0.0
    080506 H51  0.1-  0.2-    080528 704  0.1+  0.4+    080714 H55  0.2+  0.1-
    080506 H51  0.2+  0.1+    080528 704  0.4-  0.3+    080714 H55  0.2-  0.1-
    080506 H51  0.1+  0.0     080528 704  0.8+  0.5-    080714 H55  0.0   0.3+
    080506 H51  0.1+  0.2-    080528 J51  0.4-  0.2+    080714 H55  0.1-  0.2+
    080506 H51  0.1-  0.3+    080528 J51  0.6-  0.1-    080715 H55  0.9-  0.4+
    080506 H51  0.3+  0.1+    080528 J51  0.6-  0.0     080715 H55  0.1+  0.1+
    080506 H51  0.3+  0.0     080530 H45  0.2+  0.3+    080715 H55  0.2-  0.0
    080506 H51  0.0   0.1+    080530 H45  0.5-  0.2+    080715 H55  0.7+  0.2-
    080506 H51  0.0   0.0     080530 H45  0.1-  0.3+    080718 H55  0.1+  0.6+
    080506 H51  0.4+  0.2+    080530 H45  0.1-  0.2+    080718 H55  0.2+  0.2-
    080506 H51  0.4+  0.0     080530 H45  0.3-  0.0     080718 H55  0.2-  0.1+
    080506 H51  0.0   0.0     080530 648  0.2+  0.3-    080721 H55  0.1+  0.1+
    080506 H51  0.1-  0.1-    080530 648  0.5-  0.4-    080721 H55  0.4-  0.9+
    080506 H51  0.0   0.1-    080530 648  0.4-  0.3-    080721 H55  1.0+  0.9+
    080506 H51  0.5+  0.1+    080530 B34  0.5-  0.4-    080721 H55  0.2+  0.3+
    080506 H51  0.3+  0.0     080530 B34  0.2+  0.0     080721 H55  0.5+  0.2-
    080506 H51  0.2-  0.0     080531 H45  0.3+  0.7+    080724 H55  0.0   0.0
    080506 H51  0.0   0.1+    080531 H45  0.1-  0.4+    080724 H55  0.3+  0.5+
    080506 H51  0.1+  0.1+    080531 H45  0.6+  0.5+    080724 H55  1.3+  0.4+
    080508 246  0.1-  0.2-    080531 H45  0.3+  0.4+    080803 H55  0.1-  0.2+
    080508 246  0.4-  0.6-    080531 H45  0.0   0.4+    080803 H55  0.1-  0.1-
    080508 246  0.4-  0.4-    080531 H45  0.1+  0.3+    080803 H55  0.1+  0.2+
    080508 246  0.5-  0.6-    080531 H45  0.7+  0.2+    080803 H55  0.2-  0.1+
    080508 246  0.2-  0.2-    080531 151  0.4+  0.0     131012 695  0.1+  0.3+
    080508 246  0.3-  0.3-    080531 151  0.1+  0.3-    131012 695  0.1+  0.3+
    080508 113  0.5-  0.2-    080531 151  0.0   0.6-    131012 695 (1.7+  0.8+)
    080508 113  0.2-  0.4+    080531 151  0.0   0.1-    131012 695  0.1-  0.3+
    080508 113  0.0   0.2+    080531 151  0.2+  0.2+    131012 695  0.0   0.3+
    080508 113  0.3-  0.2+    080531 151  0.0   0.0     131012 695  0.0   0.4+
    080508 113  0.1-  0.2+    080531 151  0.3-  0.1-    131013 695  0.1-  0.4+
    080508 046  0.2-  0.3-    080602 H67  0.4-  0.1-    131013 695  0.1-  0.3+
    
